FW6434 Weather Reports


Display with metric or nautical units.
time (UTC)temp
F
wind
direction
speed
MPH
gust
MPH
rain 1hr
in
rain 24hr
in
rain mn
in
humidity
%
barometer
mb
20260502191706 63 157 0.0 2.0 0.00 0.00 0.00 51 1019.9
20260502191624 63 161 0.0 3.0 0.00 0.00 0.00 51 1019.9
20260502191604 63 156 0.0 3.0 0.00 0.00 0.00 51 1020.0
20260502191504 63 141 0.0 3.0 0.00 0.00 0.00 51 1020.2
20260502191405 63 148 0.0 3.0 0.00 0.00 0.00 51 1020.0
20260502191304 63 160 0.0 3.0 0.00 0.00 0.00 51 1020.1
20260502191205 63 135 1.0 3.0 0.00 0.00 0.00 51 1020.1
20260502191124 64 87 1.0 3.0 0.00 0.00 0.00 51 1019.9
20260502191104 64 125 1.0 3.0 0.00 0.00 0.00 51 1019.9
20260502191041 64 157 0.0 3.0 0.00 0.00 0.00 50 1020.1
20260502191025 64 133 1.0 3.0 0.00 0.00 0.00 50 1020.4
20260502190704 64 95 2.0 3.0 0.00 0.00 0.00 50 1020.2
20260502190625 64 169 0.0 1.0 0.00 0.00 0.00 51 1020.0
20260502190605 64 169 0.0 1.0 0.00 0.00 0.00 50 1020.0
20260502190504 64 151 0.0 1.0 0.00 0.00 0.00 50 1020.2
20260502190406 64 146 0.0 1.0 0.00 0.00 0.00 50 1020.2
20260502190304 64 161 0.0 1.0 0.00 0.00 0.00 50 1020.0
20260502190159 64 177 0.0 1.0 0.00 0.00 0.00 50 1020.1
20260502190120 64 159 0.0 1.0 0.00 0.00 0.00 50 1020.2
20260502190059 64 172 0.0 1.0 0.00 0.00 0.00 50 1020.2
20260502190033 64 180 0.0 1.0 0.00 0.00 0.00 50 1020.1
20260502190017 64 173 0.0 1.0 0.00 0.00 0.00 50 1020.1
20260502185658 64 151 0.0 2.0 0.00 0.00 0.00 50 1020.0
20260502185641 64 172 0.0 2.0 0.00 0.00 0.00 50 1020.3
20260502185634 64 163 0.0 3.0 0.00 0.00 0.00 50 1020.3
20260502185618 64 175 0.0 3.0 0.00 0.00 0.00 50 1020.1
20260502185258 64 161 0.0 3.0 0.00 0.00 0.00 49 1019.9
20260502185159 64 165 0.0 3.0 0.00 0.00 0.00 49 1020.0
20260502185144 64 169 0.0 3.0 0.00 0.00 0.00 49 1020.0
20260502185135 64 170 0.0 3.0 0.00 0.00 0.00 49 1020.0
20260502185119 64 175 0.0 3.0 0.00 0.00 0.00 49 1020.0
20260502184759 65 90 0.0 4.0 0.00 0.00 0.00 49 1020.1
20260502184729 65 131 1.0 4.0 0.00 0.00 0.00 48 1019.8
20260502184723 65 117 1.0 3.0 0.00 0.00 0.00 49 1019.7
20260502184716 65 185 1.0 4.0 0.00 0.00 0.00 49 1020.0
20260502184701 65 165 1.0 4.0 0.00 0.00 0.00 49 1020.1
20260502184653 65 140 1.0 4.0 0.00 0.00 0.00 49 1020.1
20260502184637 65 198 0.0 4.0 0.00 0.00 0.00 49 1019.8
20260502184402 65 104 1.0 4.0 0.00 0.00 0.00 48 1019.9
20260502184346 65 187 1.0 4.0 0.00 0.00 0.00 49 1019.9
20260502184333 65 151 0.0 4.0 0.00 0.00 0.00 49 1019.8
20260502184100 65 81 3.0 4.0 0.00 0.00 0.00 49 1019.9
20260502184043 65 167 0.0 3.0 0.00 0.00 0.00 49 1020.1
20260502184028 65 123 1.0 3.0 0.00 0.00 0.00 49 1020.2
20260502184011 65 185 1.0 3.0 0.00 0.00 0.00 49 1019.8
20260502183959 65 164 0.0 2.0 0.00 0.00 0.00 49 1019.8
20260502183948 65 175 0.0 2.0 0.00 0.00 0.00 49 1020.0
20260502183933 65 131 1.0 3.0 0.00 0.00 0.00 49 1019.8
20260502183917 65 134 0.0 3.0 0.00 0.00 0.00 49 1019.8
20260502183629 65 144 1.0 4.0 0.00 0.00 0.00 49 1019.8
20260502183617 65 112 0.0 4.0 0.00 0.00 0.00 48 1019.8
20260502183600 65 77 2.0 4.0 0.00 0.00 0.00 49 1020.0
20260502183545 65 172 0.0 4.0 0.00 0.00 0.00 49 1020.0
20260502183528 65 99 0.0 4.0 0.00 0.00 0.00 49 1019.8
20260502183042 65 107 2.0 4.0 0.00 0.00 0.00 48 1020.0
20260502182804 65 126 1.0 4.0 0.00 0.00 0.00 49 1019.7
20260502182748 65 53 2.0 4.0 0.00 0.00 0.00 48 1019.8
20260502182242 66 118 2.0 3.0 0.00 0.00 0.00 49 1019.6
20260502182225 66 122 2.0 3.0 0.00 0.00 0.00 49 1019.7
20260502181737 66 120 1.0 4.0 0.00 0.00 0.00 49 1019.9
20260502181507 67 99 1.0 6.0 0.00 0.00 0.00 47 1019.6
20260502181458 66 101 1.0 7.0 0.00 0.00 0.00 49 1019.7
20260502181442 66 92 2.0 7.0 0.00 0.00 0.00 49 1019.8
20260502181427 66 46 2.0 7.0 0.00 0.00 0.00 49 1019.7
20260502181358 66 65 2.0 7.0 0.00 0.00 0.00 48 1019.7
20260502181118 66 132 1.0 7.0 0.00 0.00 0.00 48 1019.6
20260502181103 67 68 3.0 7.0 0.00 0.00 0.00 48 1019.8
20260502181046 67 65 2.0 7.0 0.00 0.00 0.00 48 1019.6
20260502181024 67 74 2.0 7.0 0.00 0.00 0.00 48 1019.8
20260502181009 67 112 1.0 7.0 0.00 0.00 0.00 48 1019.7
20260502180733 67 139 2.0 6.0 0.00 0.00 0.00 48 1019.7
20260502180717 67 85 1.0 6.0 0.00 0.00 0.00 48 1019.6
20260502180449 67 136 1.0 6.0 0.00 0.00 0.00 48 1019.7
20260502180433 67 70 2.0 6.0 0.00 0.00 0.00 48 1019.7
20260502180157 67 146 0.0 6.0 0.00 0.00 0.00 48 1019.6
20260502180142 67 65 2.0 6.0 0.00 0.00 0.00 48 1019.7
20260502170459 70 94 0.0 3.0 0.00 0.00 0.00 39 1019.6
20260502170358 70 57 1.0 3.0 0.00 0.00 0.00 39 1019.7
20260502170300 70 67 2.0 4.0 0.00 0.00 0.00 39 1019.8
20260502170158 70 63 1.0 4.0 0.00 0.00 0.00 39 1019.7
20260502170106 70 111 1.0 4.0 0.00 0.00 0.00 39 1019.4
20260502164306 71 149 0.0 7.0 0.00 0.00 0.00 39 1019.7
20260502164257 71 120 0.0 7.0 0.00 0.00 0.00 39 1019.7
20260502164156 71 80 1.0 7.0 0.00 0.00 0.00 38 1019.9
20260502164056 71 66 1.0 7.0 0.00 0.00 0.00 38 1019.7
20260502163956 71 78 2.0 7.0 0.00 0.00 0.00 38 1019.5
20260502163855 71 52 2.0 7.0 0.00 0.00 0.00 38 1019.8
20260502163802 71 78 3.0 7.0 0.00 0.00 0.00 38 1019.8
20260502163754 71 46 2.0 7.0 0.00 0.00 0.00 38 1019.8
20260502163648 71 49 6.0 7.0 0.00 0.00 0.00 38 1019.6
20260502163554 71 121 1.0 6.0 0.00 0.00 0.00 38 1019.7
20260502163548 71 50 2.0 6.0 0.00 0.00 0.00 38 1019.7
20260502163532 71 57 2.0 6.0 0.00 0.00 0.00 38 1019.6
20260502163517 71 48 0.0 6.0 0.00 0.00 0.00 38 1019.7
20260502163236 71 88 0.0 6.0 0.00 0.00 0.00 37 1019.9
20260502163202 71 58 2.0 2.0 0.00 0.00 0.00 37 1019.6
20260502163155 71 143 0.0 6.0 0.00 0.00 0.00 37 1019.5
20260502163140 71 136 2.0 6.0 0.00 0.00 0.00 37 1019.5
20260502163124 71 68 4.0 6.0 0.00 0.00 0.00 37 1019.7
20260502163108 71 57 3.0 3.0 0.00 0.00 0.00 37 1019.6
20260502162841 71 131 1.0 2.0 0.00 0.00 0.00 36 1019.8
20260502162825 71 123 1.0 1.0 0.00 0.00 0.00 36 1019.7
20260502162550 71 171 0.0 1.0 0.00 0.00 0.00 35 1019.9
20260502162250 71 173 0.0 1.0 0.00 0.00 0.00 35 1019.9
20260502162231 71 174 0.0 2.0 0.00 0.00 0.00 35 1020.0
20260502162130 71 174 0.0 4.0 0.00 0.00 0.00 35 1019.8
20260502162030 71 124 0.0 4.0 0.00 0.00 0.00 35 1020.0
20260502161927 71 150 0.0 4.0 0.00 0.00 0.00 35 1020.0
20260502161817 71 142 0.0 4.0 0.00 0.00 0.00 35 1019.9
20260502161749 71 159 0.0 4.0 0.00 0.00 0.00 35 1019.9
20260502161717 71 153 0.0 4.0 0.00 0.00 0.00 33 1020.0
20260502161617 71 180 0.0 4.0 0.00 0.00 0.00 35 1019.8
20260502161552 71 185 2.0 4.0 0.00 0.00 0.00 35 1020.0
20260502161544 71 141 0.0 4.0 0.00 0.00 0.00 33 1019.8
20260502161528 71 182 0.0 4.0 0.00 0.00 0.00 35 1019.9
20260502161512 71 174 0.0 4.0 0.00 0.00 0.00 36 1020.0
20260502161216 71 172 0.0 3.0 0.00 0.00 0.00 35 1020.0
20260502161119 71 97 2.0 3.0 0.00 0.00 0.00 35 1020.0
20260502161017 71 73 1.0 3.0 0.00 0.00 0.00 35 1020.0
20260502161000 71 164 0.0 3.0 0.00 0.00 0.00 35 1019.9
20260502160945 71 129 1.0 3.0 0.00 0.00 0.00 35 1020.1
20260502160932 71 44 1.0 3.0 0.00 0.00 0.00 35 1020.1
20260502160617 71 164 0.0 3.0 0.00 0.00 0.00 35 1020.2
20260502160552 71 160 1.0 3.0 0.00 0.00 0.00 35 1020.1
20260502160536 71 196 1.0 3.0 0.00 0.00 0.00 35 1020.0
20260502160249 71 153 0.0 3.0 0.00 0.00 0.00 35 1020.0
20260502160216 71 57 2.0 3.0 0.00 0.00 0.00 35 1019.8
20260502160117 71 61 3.0 3.0 0.00 0.00 0.00 35 1019.9
20260502152318 72 130 0.0 6.0 0.00 0.00 0.00 35 1020.4
20260502152249 72 135 0.0 6.0 0.00 0.00 0.00 35 1020.4
20260502152217 72 123 0.0 6.0 0.00 0.00 0.00 35 1020.3
20260502152117 72 131 0.0 6.0 0.00 0.00 0.00 35 1020.5
20260502152017 72 174 0.0 6.0 0.00 0.00 0.00 35 1020.5
20260502151918 72 184 0.0 6.0 0.00 0.00 0.00 35 1020.2
20260502151818 72 224 0.0 6.0 0.00 0.00 0.00 35 1020.5
20260502151749 72 215 0.0 6.0 0.00 0.00 0.00 35 1020.5
20260502151718 72 189 0.0 6.0 0.00 0.00 0.00 35 1020.5
20260502151616 72 182 0.0 6.0 0.00 0.00 0.00 35 1020.5
20260502151518 72 189 2.0 6.0 0.00 0.00 0.00 36 1020.4
20260502151502 72 158 1.0 4.0 0.00 0.00 0.00 35 1020.5
20260502151447 72 158 0.0 4.0 0.00 0.00 0.00 35 1020.5
20260502151432 72 153 0.0 4.0 0.00 0.00 0.00 36 1020.5
20260502151151 72 125 1.0 4.0 0.00 0.00 0.00 35 1020.5
20260502151135 72 90 2.0 4.0 0.00 0.00 0.00 35 1020.3
20260502151119 72 113 0.0 4.0 0.00 0.00 0.00 35 1020.6
20260502151104 71 155 0.0 4.0 0.00 0.00 0.00 36 1020.4
20260502151050 71 80 1.0 4.0 0.00 0.00 0.00 35 1020.4
20260502150517 72 65 2.0 4.0 0.00 0.00 0.00 35 1020.3
20260502150418 72 168 0.0 4.0 0.00 0.00 0.00 36 1020.7
20260502150319 72 62 4.0 4.0 0.00 0.00 0.00 35 1020.4
20260502150249 72 65 3.0 4.0 0.00 0.00 0.00 35 1020.4
20260502150217 72 54 1.0 4.0 0.00 0.00 0.00 35 1020.4
20260502150118 72 154 0.0 4.0 0.00 0.00 0.00 36 1020.4
20260502140113 72 133 0.0 3.0 0.00 0.00 0.00 35 1020.9
20260502130749 72 58 2.0 6.0 0.00 0.00 0.00 36 1021.4
20260502130733 72 58 2.0 6.0 0.00 0.00 0.00 35 1021.5
20260502130651 72 44 0.0 6.0 0.00 0.00 0.00 36 1021.5
20260502130550 71 72 1.0 6.0 0.00 0.00 0.00 37 1021.2
20260502130449 72 45 2.0 6.0 0.00 0.00 0.00 36 1021.5
20260502130349 72 50 2.0 6.0 0.00 0.00 0.00 36 1021.7
20260502130249 72 64 4.0 6.0 0.00 0.00 0.00 36 1021.5
20260502130234 72 64 4.0 6.0 0.00 0.00 0.00 36 1021.6
20260502130148 72 122 0.0 6.0 0.00 0.00 0.00 36 1021.6
20260502123711 71 66 2.0 8.0 0.00 0.00 0.00 37 1021.9
20260502123611 71 142 0.0 8.0 0.00 0.00 0.00 40 1021.7
20260502123514 71 84 0.0 8.0 0.00 0.00 0.00 39 1021.8
20260502123504 71 50 4.0 8.0 0.00 0.00 0.00 38 1022.1
20260502123454 71 75 1.0 8.0 0.00 0.00 0.00 39 1021.9
20260502123437 71 56 3.0 8.0 0.00 0.00 0.00 38 1021.8
20260502123207 71 56 6.0 8.0 0.00 0.00 0.00 38 1022.1
20260502123107 71 46 1.0 6.0 0.00 0.00 0.00 40 1021.9
20260502123006 71 78 1.0 6.0 0.00 0.00 0.00 39 1021.9
20260502122948 71 69 2.0 6.0 0.00 0.00 0.00 39 1021.8
20260502122933 71 156 2.0 6.0 0.00 0.00 0.00 39 1022.0
20260502122917 71 41 3.0 6.0 0.00 0.00 0.00 39 1022.2
20260502122606 71 48 2.0 6.0 0.00 0.00 0.00 39 1022.2
20260502122506 71 62 4.0 6.0 0.00 0.00 0.00 39 1022.0
20260502122407 71 83 2.0 6.0 0.00 0.00 0.00 38 1022.1
20260502122307 71 65 4.0 6.0 0.00 0.00 0.00 38 1022.0
20260502122215 71 89 0.0 6.0 0.00 0.00 0.00 39 1022.3
20260502122206 71 72 1.0 6.0 0.00 0.00 0.00 39 1022.3
20260502122106 71 57 1.0 6.0 0.00 0.00 0.00 39 1022.0
20260502122005 71 100 3.0 6.0 0.00 0.00 0.00 38 1022.1
20260502121906 71 49 3.0 6.0 0.00 0.00 0.00 38 1022.0
20260502121807 72 190 1.0 6.0 0.00 0.00 0.00 38 1022.1
20260502121714 72 139 0.0 6.0 0.00 0.00 0.00 38 1022.3
20260502121706 72 67 1.0 6.0 0.00 0.00 0.00 38 1022.3
20260502121606 71 70 2.0 6.0 0.00 0.00 0.00 39 1022.3
20260502121507 71 64 2.0 6.0 0.00 0.00 0.00 40 1022.1
20260502121408 71 47 1.0 6.0 0.00 0.00 0.00 39 1022.1
20260502121351 71 64 0.0 4.0 0.00 0.00 0.00 39 1022.2
20260502121332 71 56 1.0 4.0 0.00 0.00 0.00 40 1022.1
20260502121325 71 172 0.0 4.0 0.00 0.00 0.00 39 1022.1
20260502121006 71 97 2.0 4.0 0.00 0.00 0.00 39 1022.1
20260502120914 72 77 1.0 4.0 0.00 0.00 0.00 38 1022.3
20260502120900 73 80 1.0 4.0 0.00 0.00 0.00 38 1022.3
20260502120845 73 191 0.0 4.0 0.00 0.00 0.00 38 1022.3
20260502120839 73 191 0.0 4.0 0.00 0.00 0.00 38 1022.3
20260502120823 72 195 0.0 4.0 0.00 0.00 0.00 39 1022.3
20260502120546 71 283 0.0 4.0 0.00 0.00 0.00 40 1022.2
20260502120531 71 203 0.0 6.0 0.00 0.00 0.00 39 1022.2
20260502120512 70 193 2.0 6.0 0.00 0.00 0.00 39 1022.3
20260502120504 70 193 2.0 6.0 0.00 0.00 0.00 39 1022.3
20260502115709 71 53 1.0 7.0 0.00 0.00 0.00 40 1022.5
20260502115647 71 70 2.0 7.0 0.00 0.00 0.00 40 1022.5
20260502115547 71 69 3.0 7.0 0.00 0.00 0.00 40 1022.4
20260502115447 71 58 2.0 7.0 0.00 0.00 0.00 39 1022.4
20260502115348 71 74 1.0 7.0 0.00 0.00 0.00 40 1022.3
20260502115248 71 142 0.0 7.0 0.00 0.00 0.00 40 1022.2
20260502115208 71 46 2.0 7.0 0.00 0.00 0.00 40 1022.3
20260502115148 71 37 4.0 4.0 0.00 0.00 0.00 40 1022.3
20260502115128 70 184 2.0 8.0 0.00 0.00 0.00 42 1022.6
20260502115119 71 105 0.0 4.0 0.00 0.00 0.00 42 1022.4
20260502115103 71 63 1.0 9.0 0.00 0.00 0.00 42 1022.4
20260502114827 72 182 0.0 9.0 0.00 0.00 0.00 40 1022.4
20260502114812 72 192 0.0 9.0 0.00 0.00 0.00 40 1022.4
20260502114804 72 200 0.0 9.0 0.00 0.00 0.00 40 1022.4
20260502114529 70 200 0.0 9.0 0.00 0.00 0.00 42 1022.4
20260502114513 70 174 0.0 9.0 0.00 0.00 0.00 42 1022.5
20260502114235 70 156 1.0 9.0 0.00 0.00 0.00 41 1022.4
20260502114226 70 170 3.0 9.0 0.00 0.00 0.00 41 1022.6
20260502114211 70 160 2.0 9.0 0.00 0.00 0.00 41 1022.4
20260502113946 70 269 0.0 8.0 0.00 0.00 0.00 42 1022.5
20260502113931 70 180 0.0 8.0 0.00 0.00 0.00 41 1022.4
20260502113916 70 65 3.0 8.0 0.00 0.00 0.00 42 1022.6
20260502113637 70 186 0.0 9.0 0.00 0.00 0.00 42 1022.5
20260502113559 70 55 2.0 9.0 0.00 0.00 0.00 42 1022.5
20260502113544 71 81 0.0 9.0 0.00 0.00 0.00 41 1022.4
20260502113528 71 79 0.0 9.0 0.00 0.00 0.00 41 1022.5
20260502113514 71 196 2.0 9.0 0.00 0.00 0.00 42 1022.5
20260502113459 70 168 0.0 9.0 0.00 0.00 0.00 43 1022.5
20260502113230 70 161 1.0 9.0 0.00 0.00 0.00 43 1022.4
20260502112956 71 99 1.0 9.0 0.00 0.00 0.00 42 1022.7
20260502112657 71 158 5.0 9.0 0.00 0.00 0.00 43 1022.6
20260502112637 70 167 5.0 9.0 0.00 0.00 0.00 42 1023.0
20260502112536 70 204 0.0 8.0 0.00 0.00 0.00 42 1022.6
20260502112437 70 221 2.0 8.0 0.00 0.00 0.00 42 1022.9
20260502112335 70 66 1.0 8.0 0.00 0.00 0.00 42 1022.9
20260502112310 70 187 0.0 8.0 0.00 0.00 0.00 42 1022.7
20260502112254 71 117 0.0 8.0 0.00 0.00 0.00 42 1022.7
20260502112248 71 95 0.0 8.0 0.00 0.00 0.00 42 1022.7
20260502112232 71 186 0.0 8.0 0.00 0.00 0.00 42 1022.6
20260502111956 71 204 3.0 6.0 0.00 0.00 0.00 42 1022.7
20260502111655 71 192 0.0 7.0 0.00 0.00 0.00 42 1022.9
20260502111635 71 194 0.0 7.0 0.00 0.00 0.00 42 1023.1
20260502111535 71 180 0.0 7.0 0.00 0.00 0.00 42 1022.9
20260502111435 71 66 0.0 7.0 0.00 0.00 0.00 43 1022.7
20260502111329 71 58 1.0 7.0 0.00 0.00 0.00 44 1023.1
20260502111230 71 189 0.0 7.0 0.00 0.00 0.00 44 1022.9
20260502111150 70 184 0.0 7.0 0.00 0.00 0.00 44 1022.9
20260502111129 70 202 0.0 7.0 0.00 0.00 0.00 44 1022.6
20260502111109 70 75 2.0 6.0 0.00 0.00 0.00 43 1023.1
20260502111101 70 241 1.0 7.0 0.00 0.00 0.00 44 1022.9
20260502111045 69 189 0.0 7.0 0.00 0.00 0.00 43 1022.9
20260502111029 69 225 3.0 7.0 0.00 0.00 0.00 43 1022.9
20260502111014 69 212 2.0 7.0 0.00 0.00 0.00 44 1022.9
20260502111000 69 233 4.0 7.0 0.00 0.00 0.00 43 1022.9
20260502110950 69 213 5.0 7.0 0.00 0.00 0.00 43 1022.9
20260502110936 69 168 1.0 7.0 0.00 0.00 0.00 43 1022.6
20260502110701 69 102 0.0 7.0 0.00 0.00 0.00 43 1022.9
20260502110644 69 67 1.0 7.0 0.00 0.00 0.00 43 1022.9
20260502110631 69 69 3.0 7.0 0.00 0.00 0.00 43 1022.9
20260502110400 69 137 1.0 6.0 0.00 0.00 0.00 43 1022.9
20260502110344 69 100 2.0 6.0 0.00 0.00 0.00 44 1023.0
20260502105613 70 38 3.0 6.0 0.00 0.00 0.00 43 1023.1
20260502105513 70 97 1.0 6.0 0.00 0.00 0.00 43 1023.2
20260502105413 70 44 1.0 6.0 0.00 0.00 0.00 43 1023.2
20260502105335 70 130 0.0 6.0 0.00 0.00 0.00 43 1023.2
20260502105318 70 125 1.0 6.0 0.00 0.00 0.00 43 1023.1
20260502105306 70 151 1.0 6.0 0.00 0.00 0.00 43 1023.1
20260502105253 70 107 0.0 6.0 0.00 0.00 0.00 43 1023.1
20260502105029 70 48 2.0 6.0 0.00 0.00 0.00 43 1023.1
20260502105014 70 52 1.0 6.0 0.00 0.00 0.00 43 1023.0
20260502104958 70 144 2.0 4.0 0.00 0.00 0.00 43 1023.2
20260502104734 71 58 2.0 6.0 0.00 0.00 0.00 43 1023.3
20260502104721 71 106 1.0 6.0 0.00 0.00 0.00 43 1023.3
20260502104712 71 54 3.0 6.0 0.00 0.00 0.00 42 1023.1
20260502104656 71 178 0.0 6.0 0.00 0.00 0.00 42 1023.2
20260502104421 71 138 0.0 6.0 0.00 0.00 0.00 43 1023.4
20260502104405 71 51 0.0 6.0 0.00 0.00 0.00 43 1023.1
20260502104137 71 50 1.0 6.0 0.00 0.00 0.00 43 1023.4
20260502104121 71 192 0.0 6.0 0.00 0.00 0.00 42 1023.2
20260502103801 70 156 1.0 6.0 0.00 0.00 0.00 42 1023.2
20260502103659 70 41 4.0 4.0 0.00 0.00 0.00 42 1023.1
20260502103631 70 141 0.0 4.0 0.00 0.00 0.00 43 1023.1
20260502103557 70 169 0.0 4.0 0.00 0.00 0.00 41 1023.1
20260502103529 71 71 1.0 4.0 0.00 0.00 0.00 42 1023.4
20260502103512 71 68 2.0 6.0 0.00 0.00 0.00 41 1023.0
20260502103155 70 198 0.0 6.0 0.00 0.00 0.00 42 1023.3
20260502103140 70 215 0.0 6.0 0.00 0.00 0.00 42 1023.3
20260502103130 71 174 1.0 6.0 0.00 0.00 0.00 41 1023.3
20260502103114 72 46 4.0 6.0 0.00 0.00 0.00 40 1023.3
20260502102835 72 189 0.0 6.0 0.00 0.00 0.00 41 1023.5
20260502102819 72 52 1.0 6.0 0.00 0.00 0.00 43 1023.3
20260502102806 71 157 0.0 6.0 0.00 0.00 0.00 40 1023.3
20260502102453 71 196 2.0 6.0 0.00 0.00 0.00 41 1023.2
20260502102353 71 212 2.0 2.0 0.00 0.00 0.00 41 1023.3
20260502102253 71 84 0.0 2.0 0.00 0.00 0.00 42 1023.4
20260502102154 72 142 0.0 2.0 0.00 0.00 0.00 43 1023.7
20260502102125 72 162 0.0 2.0 0.00 0.00 0.00 42 1023.5
20260502102052 72 183 0.0 2.0 0.00 0.00 0.00 41 1023.5
20260502101953 73 192 0.0 2.0 0.00 0.00 0.00 42 1023.6
20260502101655 73 221 1.0 2.0 0.00 0.00 0.00 42 1023.3
20260502101625 73 179 0.0 2.0 0.00 0.00 0.00 42 1023.6
20260502101554 73 187 0.0 2.0 0.00 0.00 0.00 43 1023.6
20260502101450 73 196 1.0 2.0 0.00 0.00 0.00 45 1023.4
20260502101354 72 107 1.0 2.0 0.00 0.00 0.00 45 1023.6
20260502101337 72 192 0.0 2.0 0.00 0.00 0.00 43 1023.6
20260502101321 73 206 0.0 2.0 0.00 0.00 0.00 42 1023.7
20260502101304 73 306 1.0 2.0 0.00 0.00 0.00 42 1023.5
20260502100950 73 66 0.0 1.0 0.00 0.00 0.00 42 1023.6
20260502100924 73 196 0.0 1.0 0.00 0.00 0.00 44 1023.5
20260502100908 74 180 0.0 1.0 0.00 0.00 0.00 43 1023.6
20260502100619 74 200 0.0 7.0 0.00 0.00 0.00 40 1023.5
20260502100601 73 268 0.0 7.0 0.00 0.00 0.00 41 1023.5
20260502100544 73 187 0.0 7.0 0.00 0.00 0.00 43 1023.5
20260502100526 73 215 0.0 7.0 0.00 0.00 0.00 41 1023.6
20260502100510 72 197 0.0 7.0 0.00 0.00 0.00 43 1023.7
20260502100455 72 192 0.0 7.0 0.00 0.00 0.00 44 1023.8
20260502100440 71 192 0.0 7.0 0.00 0.00 0.00 44 1023.8
20260502100430 71 192 0.0 7.0 0.00 0.00 0.00 44 1023.6
20260502100153 71 184 0.0 7.0 0.00 0.00 0.00 43 1023.6
20260502091527 70 39 1.0 8.0 0.00 0.00 0.00 46 1024.1
20260502091250 69 134 1.0 8.0 0.00 0.00 0.00 45 1024.1
20260502091234 69 36 1.0 8.0 0.00 0.00 0.00 45 1024.1
20260502091009 69 93 1.0 8.0 0.00 0.00 0.00 45 1024.1
20260502090953 69 43 2.0 8.0 0.00 0.00 0.00 44 1024.1
20260502090717 69 29 1.0 8.0 0.00 0.00 0.00 44 1024.2
20260502090448 70 60 3.0 8.0 0.00 0.00 0.00 44 1024.3
20260502090212 70 66 4.0 7.0 0.00 0.00 0.00 43 1024.3
20260502090155 70 81 0.0 7.0 0.00 0.00 0.00 45 1024.3
20260502071451 66 111 1.0 2.0 0.00 0.00 0.00 50 1024.4
20260502071436 66 51 1.0 2.0 0.00 0.00 0.00 50 1024.4
20260502071420 66 114 0.0 2.0 0.00 0.00 0.00 50 1024.5
20260502071404 66 146 0.0 2.0 0.00 0.00 0.00 51 1024.4
20260502070915 65 83 0.0 2.0 0.00 0.00 0.00 51 1024.5
20260502070859 65 98 1.0 2.0 0.00 0.00 0.00 52 1024.3
20260502070624 65 109 0.0 2.0 0.00 0.00 0.00 52 1024.5
20260502070617 65 109 0.0 2.0 0.00 0.00 0.00 52 1024.5
20260502070257 65 89 1.0 2.0 0.00 0.00 0.00 52 1024.2
20260502070157 65 90 1.0 2.0 0.00 0.00 0.00 53 1024.2
20260502070058 65 162 0.0 2.0 0.00 0.00 0.00 55 1024.4
20260502070007 65 165 0.0 2.0 0.00 0.00 0.00 52 1024.6
20260502065958 65 168 0.0 2.0 0.00 0.00 0.00 52 1024.6
20260502065853 65 64 0.0 2.0 0.00 0.00 0.00 52 1024.4
20260502065744 64 171 0.0 2.0 0.00 0.00 0.00 54 1024.4
20260502065643 64 172 0.0 2.0 0.00 0.00 0.00 53 1024.3
20260502065544 64 133 1.0 2.0 0.00 0.00 0.00 53 1024.5
20260502065504 64 71 1.0 2.0 0.00 0.00 0.00 53 1024.4
20260502065443 64 77 1.0 2.0 0.00 0.00 0.00 55 1024.6
20260502065342 64 73 1.0 2.0 0.00 0.00 0.00 53 1024.5
20260502065241 64 158 1.0 2.0 0.00 0.00 0.00 53 1024.6
20260502065143 64 100 0.0 2.0 0.00 0.00 0.00 53 1024.4
20260502065041 64 87 1.0 2.0 0.00 0.00 0.00 53 1024.3
20260502065001 64 136 0.0 2.0 0.00 0.00 0.00 55 1024.3
20260502064941 64 47 2.0 2.0 0.00 0.00 0.00 54 1024.4
20260502064841 64 176 0.0 2.0 0.00 0.00 0.00 55 1024.5
20260502064741 64 178 0.0 2.0 0.00 0.00 0.00 55 1024.5
20260502064720 64 163 0.0 2.0 0.00 0.00 0.00 57 1024.4
20260502064704 63 121 0.0 2.0 0.00 0.00 0.00 57 1024.5
20260502064648 64 121 0.0 2.0 0.00 0.00 0.00 57 1024.5
20260502064400 64 99 0.0 2.0 0.00 0.00 0.00 55 1024.6
20260502064341 64 162 0.0 2.0 0.00 0.00 0.00 55 1024.5
20260502064325 64 186 0.0 2.0 0.00 0.00 0.00 56 1024.5
20260502064310 64 144 0.0 2.0 0.00 0.00 0.00 56 1024.4
20260502064255 64 192 0.0 2.0 0.00 0.00 0.00 56 1024.4
20260502064027 63 175 0.0 1.0 0.00 0.00 0.00 56 1024.4
20260502064012 63 172 0.0 1.0 0.00 0.00 0.00 57 1024.6
20260502063736 62 181 0.0 1.0 0.00 0.00 0.00 58 1024.4
20260502063720 62 176 0.0 1.0 0.00 0.00 0.00 58 1024.4
20260502063452 63 160 0.0 1.0 0.00 0.00 0.00 58 1024.4
20260502063130 62 177 0.0 1.0 0.00 0.00 0.00 58 1024.6
20260502063030 62 173 0.0 1.0 0.00 0.00 0.00 58 1024.9
20260502062950 62 158 0.0 1.0 0.00 0.00 0.00 58 1024.9
20260502062923 63 160 0.0 1.0 0.00 0.00 0.00 59 1024.5
20260502062817 62 180 0.0 1.0 0.00 0.00 0.00 59 1024.5
20260502062719 62 175 0.0 1.0 0.00 0.00 0.00 58 1024.4
20260502062656 62 168 0.0 1.0 0.00 0.00 0.00 59 1024.6
20260502062640 62 169 0.0 1.0 0.00 0.00 0.00 59 1024.5
20260502062627 62 169 0.0 1.0 0.00 0.00 0.00 60 1024.5
20260502062313 62 173 0.0 1.0 0.00 0.00 0.00 59 1024.3
20260502062212 61 179 0.0 1.0 0.00 0.00 0.00 59 1024.4
20260502062113 61 188 0.0 1.0 0.00 0.00 0.00 60 1024.6
20260502062052 61 182 0.0 1.0 0.00 0.00 0.00 60 1024.5
20260502062037 61 167 0.0 1.0 0.00 0.00 0.00 60 1024.5
20260502062028 61 180 0.0 1.0 0.00 0.00 0.00 59 1024.4
20260502061746 61 89 1.0 1.0 0.00 0.00 0.00 58 1024.5
20260502061738 61 163 0.0 1.0 0.00 0.00 0.00 59 1024.5
20260502061722 61 155 0.0 1.0 0.00 0.00 0.00 58 1024.7
20260502061707 61 126 0.0 1.0 0.00 0.00 0.00 58 1024.6
20260502061440 61 130 0.0 1.0 0.00 0.00 0.00 58 1024.5
20260502061422 61 180 0.0 1.0 0.00 0.00 0.00 59 1024.4
20260502061101 61 152 0.0 1.0 0.00 0.00 0.00 60 1024.5
20260502061002 61 155 0.0 1.0 0.00 0.00 0.00 61 1024.6
20260502060933 61 164 0.0 1.0 0.00 0.00 0.00 62 1024.4
20260502060853 61 185 0.0 1.0 0.00 0.00 0.00 61 1024.4
20260502060752 60 187 0.0 1.0 0.00 0.00 0.00 62 1024.7
20260502060647 60 183 0.0 1.0 0.00 0.00 0.00 62 1024.4
20260502060546 60 180 0.0 1.0 0.00 0.00 0.00 62 1024.5
20260502060440 60 145 0.0 1.0 0.00 0.00 0.00 61 1024.3
20260502060428 60 156 0.0 1.0 0.00 0.00 0.00 61 1024.5
20260502060341 60 178 0.0 1.0 0.00 0.00 0.00 61 1024.5
20260502060242 60 173 0.0 1.0 0.00 0.00 0.00 62 1024.3
20260502060142 60 182 0.0 1.0 0.00 0.00 0.00 63 1024.6
20260502060040 59 186 0.0 1.0 0.00 0.00 0.00 63 1024.7
20260502055923 59 186 0.0 1.0 0.00 0.00 0.00 63 1024.3
20260502055837 59 184 0.0 1.0 0.00 0.00 0.00 63 1024.6
20260502055805 59 169 0.0 1.0 0.00 0.00 0.00 64 1024.7
20260502055749 59 166 0.0 1.0 0.00 0.00 0.00 65 1024.5
20260502055733 59 179 0.0 1.0 0.00 0.00 0.00 65 1024.5
20260502055509 59 182 0.0 1.0 0.00 0.00 0.00 65 1024.4
20260502055456 59 182 0.0 1.0 0.00 0.00 0.00 64 1024.4
20260502055444 58 185 0.0 1.0 0.00 0.00 0.00 65 1024.4
20260502055426 58 185 0.0 1.0 0.00 0.00 0.00 66 1024.7
20260502055202 58 185 0.0 1.0 0.00 0.00 0.00 66 1024.5
20260502055147 58 144 0.0 1.0 0.00 0.00 0.00 67 1024.6
20260502055131 57 170 0.0 1.0 0.00 0.00 0.00 66 1024.5
20260502054828 57 144 0.0 1.0 0.00 0.00 0.00 66 1024.4
20260502054756 56 136 0.0 1.0 0.00 0.00 0.00 65 1024.6
20260502054742 56 136 0.0 1.0 0.00 0.00 0.00 66 1024.4
20260502054417 56 168 0.0 1.0 0.00 0.00 0.00 65 1024.5
20260502054316 56 106 0.0 1.0 0.00 0.00 0.00 66 1024.7
20260502054217 56 119 0.0 1.0 0.00 0.00 0.00 66 1024.7
20260502054116 56 126 0.0 1.0 0.00 0.00 0.00 67 1024.3
20260502054055 56 166 0.0 1.0 0.00 0.00 0.00 67 1024.4
20260502054031 56 162 0.0 1.0 0.00 0.00 0.00 68 1024.4
20260502053659 55 143 0.0 1.0 0.00 0.00 0.00 68 1024.4
20260502053633 55 140 0.0 1.0 0.00 0.00 0.00 69 1024.3
20260502053617 55 157 0.0 1.0 0.00 0.00 0.00 69 1024.5
20260502053601 55 166 0.0 1.0 0.00 0.00 0.00 70 1024.4
20260502053554 55 166 0.0 1.0 0.00 0.00 0.00 70 1024.4
20260502053314 55 124 0.0 1.0 0.00 0.00 0.00 70 1024.5
20260502053258 54 148 0.0 1.0 0.00 0.00 0.00 70 1024.4
20260502053022 54 137 0.0 1.0 0.00 0.00 0.00 71 1024.3
20260502053015 54 137 0.0 1.0 0.00 0.00 0.00 71 1024.3
20260502052730 54 141 0.0 1.0 0.00 0.00 0.00 71 1024.4
20260502052714 54 122 1.0 1.0 0.00 0.00 0.00 73 1024.5
20260502052434 54 160 0.0 0.0 0.00 0.00 0.00 73 1024.3
20260502052428 54 160 0.0 0.0 0.00 0.00 0.00 72 1024.3
20260502052410 54 166 0.0 0.0 0.00 0.00 0.00 74 1024.4
20260502052355 54 170 0.0 0.0 0.00 0.00 0.00 74 1024.5
20260502052120 54 170 0.0 0.0 0.00 0.00 0.00 75 1024.5
20260502052103 54 164 0.0 0.0 0.00 0.00 0.00 76 1024.3
20260502051837 53 170 0.0 0.0 0.00 0.00 0.00 76 1024.5
20260502051825 53 170 0.0 0.0 0.00 0.00 0.00 75 1024.5
20260502051809 53 169 0.0 0.0 0.00 0.00 0.00 75 1024.5
20260502051752 53 170 0.0 0.0 0.00 0.00 0.00 76 1024.5
20260502051735 53 170 0.0 0.0 0.00 0.00 0.00 75 1024.3
20260502051508 53 170 0.0 0.0 0.00 0.00 0.00 75 1024.5
20260502051227 49 169 0.0 0.0 0.00 0.00 0.00 82 1024.1
20260502051223 52 172 0.0 0.0 0.00 0.00 0.00 75 1024.5
20260502051212 53 169 0.0 0.0 0.00 0.00 0.00 76 1024.5
20260502051156 53 168 0.0 0.0 0.00 0.00 0.00 76 1024.5
20260502051139 53 166 0.0 0.0 0.00 0.00 0.00 77 1024.5
20260502051116 53 160 0.0 0.0 0.00 0.00 0.00 76 1024.6
20260502051100 53 163 0.0 0.0 0.00 0.00 0.00 75 1024.5
20260502051043 53 173 0.0 0.0 0.00 0.00 0.00 75 1024.4
20260502050808 52 173 0.0 0.0 0.00 0.00 0.00 75 1024.4
20260502050540 52 171 0.0 0.0 0.00 0.00 0.00 75 1024.5
20260502050522 52 160 0.0 0.0 0.00 0.00 0.00 76 1024.4
20260502050248 51 165 0.0 0.0 0.00 0.00 0.00 77 1024.5
20260502050023 51 167 0.0 0.0 0.00 0.00 0.00 78 1024.5
20260502050007 51 168 0.0 0.0 0.00 0.00 0.00 78 1024.6
20260502050000 51 169 0.0 0.0 0.00 0.00 0.00 78 1024.6
20260502045944 51 167 0.0 0.0 0.00 0.00 0.00 78 1024.5
20260502045928 50 167 0.0 0.0 0.00 0.00 0.00 79 1024.5
20260502045913 50 169 0.0 0.0 0.00 0.00 0.00 79 1024.5
20260502045635 50 167 0.0 0.0 0.00 0.00 0.00 80 1024.4
20260502045403 49 169 0.0 0.0 0.00 0.00 0.00 81 1024.3
20260502045348 49 170 0.0 0.0 0.00 0.00 0.00 81 1024.4
20260502045332 49 170 0.0 0.0 0.00 0.00 0.00 81 1024.4
20260502044841 49 169 0.0 0.0 0.00 0.00 0.00 82 1024.1
20260502044740 49 168 0.0 0.0 0.00 0.00 0.00 82 1024.2
20260502044642 48 168 0.0 0.0 0.00 0.00 0.00 82 1024.2
20260502044540 48 169 0.0 0.0 0.00 0.00 0.00 83 1024.3
20260502044440 48 169 0.0 0.0 0.00 0.00 0.00 83 1024.1
20260502044340 48 169 0.0 0.0 0.00 0.00 0.00 84 1024.1
20260502044241 48 169 0.0 0.0 0.00 0.00 0.00 84 1024.3
20260502044216 48 171 0.0 0.0 0.00 0.00 0.00 84 1024.3
20260502044200 47 171 0.0 0.0 0.00 0.00 0.00 85 1024.3
20260502043842 47 171 0.0 0.0 0.00 0.00 0.00 85 1024.5
20260502043740 47 170 0.0 0.0 0.00 0.00 0.00 86 1024.2
20260502043706 45 171 0.0 0.0 0.00 0.00 0.00 88 1024.3
20260502043700 47 173 0.0 0.0 0.00 0.00 0.00 86 1024.3
20260502043644 47 173 0.0 0.0 0.00 0.00 0.00 86 1024.3
20260502043629 46 173 0.0 0.0 0.00 0.00 0.00 87 1024.4
20260502043613 46 173 0.0 0.0 0.00 0.00 0.00 87 1024.4
20260502043343 46 173 0.0 0.0 0.00 0.00 0.00 87 1024.4
20260502043327 46 173 0.0 0.0 0.00 0.00 0.00 87 1024.4
20260502043312 46 172 0.0 0.0 0.00 0.00 0.00 87 1024.5
20260502043256 46 172 0.0 0.0 0.00 0.00 0.00 88 1024.3
20260502042718 45 174 0.0 0.0 0.00 0.00 0.00 88 1024.4
20260502042617 45 174 0.0 0.0 0.00 0.00 0.00 89 1024.3
20260502042542 45 174 0.0 0.0 0.00 0.00 0.00 89 1024.4
20260502042527 45 174 0.0 0.0 0.00 0.00 0.00 89 1024.3
20260502042511 45 174 0.0 0.0 0.00 0.00 0.00 90 1024.0
20260502042502 45 174 0.0 0.0 0.00 0.00 0.00 90 1024.0
20260502042443 45 174 0.0 0.0 0.00 0.00 0.00 90 1024.3
20260502042427 45 174 0.0 0.0 0.00 0.00 0.00 91 1024.1
20260502042412 45 174 0.0 0.0 0.00 0.00 0.00 92 1024.1
20260502042356 44 174 0.0 0.0 0.00 0.00 0.00 92 1024.4
20260502042341 44 174 0.0 0.0 0.00 0.00 0.00 92 1024.3
20260502042113 44 174 0.0 0.0 0.00 0.00 0.00 93 1024.1
20260502042057 44 174 0.0 0.0 0.00 0.00 0.00 94 1024.2
20260502042041 43 174 0.0 0.0 0.00 0.00 0.00 94 1024.4
20260502041759 43 174 0.0 0.0 0.00 0.00 0.00 94 1024.2
20260502041741 43 174 0.0 0.0 0.00 0.00 0.00 94 1024.1
20260502041024 42 174 0.0 0.0 0.00 0.00 0.00 95 1024.1
20260502040711 42 174 0.0 0.0 0.00 0.00 0.00 95 1024.3
20260502040611 42 174 0.0 0.0 0.00 0.00 0.00 95 1024.0
20260502040509 42 174 0.0 0.0 0.00 0.00 0.00 95 1024.1
20260502040410 42 174 0.0 0.0 0.00 0.00 0.00 95 1024.2
20260502040311 42 174 0.0 0.0 0.00 0.00 0.00 95 1024.2
20260502040210 42 174 0.0 0.0 0.00 0.00 0.00 96 1024.0
20260502040110 42 174 0.0 0.0 0.00 0.00 0.00 96 1023.9
20260502040011 42 174 0.0 0.0 0.00 0.00 0.00 96 1024.1
20260502035906 42 174 0.0 0.0 0.00 0.00 0.00 96 1024.1
20260502035805 42 174 0.0 0.0 0.00 0.00 0.00 96 1024.2
20260502035705 41 174 0.0 0.0 0.00 0.00 0.00 96 1024.0
20260502035608 41 174 0.0 0.0 0.00 0.00 0.00 96 1024.0
20260502035551 41 174 0.0 0.0 0.00 0.00 0.00 96 1024.0
20260502035534 41 174 0.0 0.0 0.00 0.00 0.00 96 1024.2
20260502035519 42 174 0.0 0.0 0.00 0.00 0.00 96 1023.8
20260502035205 42 174 0.0 0.0 0.00 0.00 0.00 96 1024.0
20260502035106 42 174 0.0 0.0 0.00 0.00 0.00 96 1024.2
20260502035007 42 174 0.0 0.0 0.00 0.00 0.00 96 1024.1
20260502034906 42 174 0.0 0.0 0.00 0.00 0.00 96 1024.1
20260502034815 42 174 0.0 0.0 0.00 0.00 0.00 96 1023.9
20260502034807 42 174 0.0 0.0 0.00 0.00 0.00 96 1023.9
20260502034705 42 174 0.0 0.0 0.00 0.00 0.00 96 1023.9
20260502034556 42 174 0.0 0.0 0.00 0.00 0.00 96 1024.1
20260502034454 42 174 0.0 0.0 0.00 0.00 0.00 96 1024.1
20260502034353 42 174 0.0 0.0 0.00 0.00 0.00 96 1024.0
20260502034314 42 174 0.0 0.0 0.00 0.00 0.00 96 1023.9
20260502034254 42 174 0.0 0.0 0.00 0.00 0.00 96 1023.9
20260502034153 42 174 0.0 0.0 0.00 0.00 0.00 96 1024.0
20260502034053 42 174 0.0 0.0 0.00 0.00 0.00 96 1024.2
20260502033948 41 174 0.0 0.0 0.00 0.00 0.00 96 1023.9
20260502033847 41 174 0.0 0.0 0.00 0.00 0.00 96 1024.0
20260502033808 41 174 0.0 0.0 0.00 0.00 0.00 96 1024.0
20260502033803 41 174 0.0 0.0 0.00 0.00 0.00 96 1023.9
20260502033756 41 174 0.0 0.0 0.00 0.00 0.00 97 1024.0
20260502033738 41 174 0.0 0.0 0.00 0.00 0.00 96 1023.8
20260502033724 41 174 0.0 0.0 0.00 0.00 0.00 96 1023.9
20260502033709 40 174 0.0 0.0 0.00 0.00 0.00 96 1024.0
20260502033436 40 174 0.0 0.0 0.00 0.00 0.00 96 1024.0
20260502033426 40 174 0.0 0.0 0.00 0.00 0.00 96 1024.2
20260502033409 40 174 0.0 0.0 0.00 0.00 0.00 96 1024.1
20260502033353 40 174 0.0 0.0 0.00 0.00 0.00 96 1024.1
20260502033337 40 174 0.0 0.0 0.00 0.00 0.00 96 1024.0
20260502033322 41 174 0.0 0.0 0.00 0.00 0.00 96 1023.9
20260502032555 41 174 0.0 0.0 0.00 0.00 0.00 95 1023.9
20260502032548 41 174 0.0 0.0 0.00 0.00 0.00 96 1024.0
20260502032532 41 174 0.0 0.0 0.00 0.00 0.00 95 1023.8
20260502032517 41 174 0.0 0.0 0.00 0.00 0.00 95 1023.9
20260502032225 40 174 0.0 0.0 0.00 0.00 0.00 95 1024.2
20260502032200 40 174 0.0 0.0 0.00 0.00 0.00 95 1024.1
20260502032144 40 174 0.0 0.0 0.00 0.00 0.00 95 1024.1
20260502031827 40 174 0.0 0.0 0.00 0.00 0.00 95 1023.9
20260502031758 40 174 0.0 0.0 0.00 0.00 0.00 95 1023.9
20260502031725 40 174 0.0 0.0 0.00 0.00 0.00 94 1024.1
20260502031623 40 174 0.0 0.0 0.00 0.00 0.00 94 1023.8
20260502031523 41 174 0.0 0.0 0.00 0.00 0.00 94 1024.0
20260502031422 41 174 0.0 0.0 0.00 0.00 0.00 94 1024.0
20260502031323 41 174 0.0 0.0 0.00 0.00 0.00 94 1024.0
20260502031255 42 174 0.0 0.0 0.00 0.00 0.00 94 1024.0
20260502031225 42 174 0.0 0.0 0.00 0.00 0.00 94 1024.1
20260502031119 42 174 0.0 0.0 0.00 0.00 0.00 94 1024.2
20260502031013 42 174 0.0 0.0 0.00 0.00 0.00 95 1023.9
20260502030912 42 174 0.0 0.0 0.00 0.00 0.00 95 1024.2
20260502030815 42 174 0.0 0.0 0.00 0.00 0.00 96 1023.8
20260502030744 42 174 0.0 0.0 0.00 0.00 0.00 96 1023.8
20260502030713 42 174 0.0 0.0 0.00 0.00 0.00 96 1024.0
20260502030613 42 174 0.0 0.0 0.00 0.00 0.00 96 1023.9
20260502030511 42 174 0.0 0.0 0.00 0.00 0.00 96 1024.0
20260502030446 42 174 0.0 0.0 0.00 0.00 0.00 96 1024.2
20260502030417 42 174 0.0 0.0 0.00 0.00 0.00 96 1024.0
20260502030404 41 174 0.0 0.0 0.00 0.00 0.00 96 1024.0
20260502030128 41 174 0.0 0.0 0.00 0.00 0.00 96 1023.9
20260502025739 41 174 0.0 0.0 0.00 0.00 0.00 96 1023.9
20260502025700 41 174 0.0 0.0 0.00 0.00 0.00 95 1024.1
20260502025601 41 174 0.0 0.0 0.00 0.00 0.00 95 1024.0
20260502025501 41 174 0.0 0.0 0.00 0.00 0.00 95 1023.9
20260502025401 41 174 0.0 0.0 0.00 0.00 0.00 95 1024.0
20260502025306 40 174 0.0 0.0 0.00 0.00 0.00 95 1024.0
20260502025232 40 174 0.0 0.0 0.00 0.00 0.00 95 1024.0
20260502025202 40 174 0.0 0.0 0.00 0.00 0.00 95 1024.0
20260502025100 40 174 0.0 0.0 0.00 0.00 0.00 95 1023.8
20260502025000 40 174 0.0 0.0 0.00 0.00 0.00 95 1024.0
20260502024859 40 174 0.0 0.0 0.00 0.00 0.00 94 1024.0
20260502024759 40 174 0.0 0.0 0.00 0.00 0.00 94 1023.7
20260502024732 40 174 0.0 0.0 0.00 0.00 0.00 94 1024.1
20260502024649 41 174 0.0 0.0 0.00 0.00 0.00 94 1024.1
20260502024613 41 174 0.0 0.0 0.00 0.00 0.00 94 1024.2
20260502024607 41 174 0.0 0.0 0.00 0.00 0.00 94 1024.2
20260502024551 41 174 0.0 0.0 0.00 0.00 0.00 94 1023.9
20260502024536 41 174 0.0 0.0 0.00 0.00 0.00 94 1023.9
20260502024520 41 174 0.0 0.0 0.00 0.00 0.00 94 1024.2
20260502024251 41 174 0.0 0.0 0.00 0.00 0.00 94 1024.2
20260502024236 41 174 0.0 0.0 0.00 0.00 0.00 94 1024.0
20260502024214 42 174 0.0 0.0 0.00 0.00 0.00 94 1024.0
20260502023926 42 174 0.0 0.0 0.00 0.00 0.00 94 1024.0
20260502023915 42 174 0.0 0.0 0.00 0.00 0.00 94 1024.0
20260502023335 42 174 0.0 0.0 0.00 0.00 0.00 94 1023.8
20260502023313 42 174 0.0 0.0 0.00 0.00 0.00 94 1024.0
20260502023252 42 174 0.0 0.0 0.00 0.00 0.00 94 1024.0
20260502023238 42 174 0.0 0.0 0.00 0.00 0.00 94 1024.1
20260502023223 42 174 0.0 0.0 0.00 0.00 0.00 94 1024.0
20260502022959 42 174 0.0 0.0 0.00 0.00 0.00 94 1024.1
20260502022942 42 174 0.0 0.0 0.00 0.00 0.00 94 1024.0
20260502022927 42 174 0.0 0.0 0.00 0.00 0.00 94 1024.0
20260502022624 42 174 0.0 0.0 0.00 0.00 0.00 94 1023.9
20260502022544 42 174 0.0 0.0 0.00 0.00 0.00 95 1023.8
20260502022537 42 174 0.0 0.0 0.00 0.00 0.00 95 1024.2
20260502022522 42 174 0.0 0.0 0.00 0.00 0.00 95 1023.9
20260502022508 42 174 0.0 0.0 0.00 0.00 0.00 95 1024.2
20260502022441 42 174 0.0 0.0 0.00 0.00 0.00 95 1023.9
20260502022209 42 174 0.0 0.0 0.00 0.00 0.00 95 1023.9
20260502022152 42 174 0.0 0.0 0.00 0.00 0.00 95 1024.0
20260502021914 42 174 0.0 0.0 0.00 0.00 0.00 95 1023.8
20260502021612 42 174 0.0 0.0 0.00 0.00 0.00 95 1024.0
20260502021513 42 174 0.0 0.0 0.00 0.00 0.00 95 1023.8
20260502021412 42 174 0.0 0.0 0.00 0.00 0.00 95 1023.9
20260502021312 42 174 0.0 0.0 0.00 0.00 0.00 95 1023.8
20260502021212 42 174 0.0 0.0 0.00 0.00 0.00 95 1024.0
20260502021157 42 174 0.0 0.0 0.00 0.00 0.00 95 1024.0
20260502021122 42 174 0.0 0.0 0.00 0.00 0.00 94 1023.8
20260502021116 42 174 0.0 0.0 0.00 0.00 0.00 94 1023.9
20260502021105 42 174 0.0 0.0 0.00 0.00 0.00 94 1024.0
20260502021056 42 174 0.0 0.0 0.00 0.00 0.00 94 1023.8
20260502021040 42 174 0.0 0.0 0.00 0.00 0.00 94 1023.9
20260502021024 42 174 0.0 0.0 0.00 0.00 0.00 94 1024.1
20260502021008 42 174 0.0 0.0 0.00 0.00 0.00 94 1023.8
20260502020741 42 174 0.0 0.0 0.00 0.00 0.00 94 1023.9
20260502020725 42 174 0.0 0.0 0.00 0.00 0.00 94 1024.0
20260502020709 42 174 0.0 0.0 0.00 0.00 0.00 94 1024.0
20260502020652 42 174 0.0 0.0 0.00 0.00 0.00 94 1023.8
20260502020628 42 174 0.0 0.0 0.00 0.00 0.00 94 1024.0
20260502020349 42 174 0.0 0.0 0.00 0.00 0.00 94 1024.0
20260502015852 42 174 0.0 0.0 0.00 0.00 0.00 94 1024.0
20260502015537 42 174 0.0 0.0 0.00 0.00 0.00 94 1023.9
20260502015437 42 174 0.0 0.0 0.00 0.00 0.00 94 1023.8
20260502015338 42 174 0.0 0.0 0.00 0.00 0.00 94 1024.0
20260502015238 42 174 0.0 0.0 0.00 0.00 0.00 94 1024.1
20260502015137 42 174 0.0 0.0 0.00 0.00 0.00 94 1024.0
20260502015037 42 174 0.0 0.0 0.00 0.00 0.00 94 1024.1
20260502015002 42 174 0.0 0.0 0.00 0.00 0.00 94 1024.1
20260502014946 42 174 0.0 0.0 0.00 0.00 0.00 94 1024.2
20260502014929 42 174 0.0 0.0 0.00 0.00 0.00 94 1024.1
20260502014700 42 174 0.0 0.0 0.00 0.00 0.00 94 1024.0
20260502014646 42 174 0.0 0.0 0.00 0.00 0.00 93 1023.8
20260502014407 42 174 0.0 0.0 0.00 0.00 0.00 93 1023.9
20260502014351 42 174 0.0 0.0 0.00 0.00 0.00 93 1024.0
20260502014124 42 174 0.0 0.0 0.00 0.00 0.00 93 1024.2
20260502014014 42 174 0.0 0.0 0.00 0.00 0.00 93 1024.1
20260502013948 42 174 0.0 0.0 0.00 0.00 0.00 93 1024.0
20260502013931 42 174 0.0 0.0 0.00 0.00 0.00 93 1023.9
20260502013612 42 174 0.0 0.0 0.00 0.00 0.00 93 1024.0
20260502013600 42 174 0.0 0.0 0.00 0.00 0.00 93 1024.0
20260502013511 42 174 0.0 0.0 0.00 0.00 0.00 93 1024.1
20260502013407 42 174 0.0 0.0 0.00 0.00 0.00 93 1024.1
20260502013306 42 174 0.0 0.0 0.00 0.00 0.00 93 1024.1
20260502013205 42 174 0.0 0.0 0.00 0.00 0.00 93 1024.1
20260502013106 42 174 0.0 0.0 0.00 0.00 0.00 93 1024.0
20260502012953 42 174 0.0 0.0 0.00 0.00 0.00 93 1024.1
20260502012853 42 174 0.0 0.0 0.00 0.00 0.00 93 1024.2
20260502012754 42 174 0.0 0.0 0.00 0.00 0.00 93 1024.2
20260502012654 42 174 0.0 0.0 0.00 0.00 0.00 93 1024.2
20260502012552 42 174 0.0 0.0 0.00 0.00 0.00 93 1024.0
20260502012453 42 174 0.0 0.0 0.00 0.00 0.00 93 1024.1
20260502012352 42 174 0.0 0.0 0.00 0.00 0.00 92 1024.1
20260502012255 42 174 0.0 0.0 0.00 0.00 0.00 92 1024.1
20260502012239 42 174 0.0 0.0 0.00 0.00 0.00 92 1023.9
20260502012214 42 174 0.0 0.0 0.00 0.00 0.00 92 1024.0
20260502011854 42 174 0.0 0.0 0.00 0.00 0.00 92 1024.1
20260502011752 42 174 0.0 0.0 0.00 0.00 0.00 92 1023.9
20260502011653 42 174 0.0 0.0 0.00 0.00 0.00 92 1024.1
20260502011622 42 174 0.0 0.0 0.00 0.00 0.00 92 1024.2
20260502011605 42 174 0.0 0.0 0.00 0.00 0.00 92 1024.2
20260502011549 42 174 0.0 0.0 0.00 0.00 0.00 92 1024.1
20260502011300 42 174 0.0 0.0 0.00 0.00 0.00 92 1024.0
20260502011013 43 174 0.0 0.0 0.00 0.00 0.00 92 1024.5
20260502010958 43 174 0.0 0.0 0.00 0.00 0.00 92 1024.2
20260502010637 43 174 0.0 0.0 0.00 0.00 0.00 92 1024.2
20260502010611 43 174 0.0 0.0 0.00 0.00 0.00 92 1024.2
20260502010536 43 174 0.0 0.0 0.00 0.00 0.00 92 1024.3
20260502010435 43 174 0.0 0.0 0.00 0.00 0.00 92 1024.0
20260502010335 43 174 0.0 0.0 0.00 0.00 0.00 92 1024.2
20260502010236 43 174 0.0 0.0 0.00 0.00 0.00 92 1024.1
20260502010136 43 174 0.0 0.0 0.00 0.00 0.00 92 1023.9
20260502010109 43 174 0.0 0.0 0.00 0.00 0.00 92 1023.9
20260502010028 43 174 0.0 0.0 0.00 0.00 0.00 92 1024.2
20260502005928 43 174 0.0 0.0 0.00 0.00 0.00 92 1024.0
20260502005851 43 174 0.0 0.0 0.00 0.00 0.00 92 1024.2
20260502005844 43 174 0.0 0.0 0.00 0.00 0.00 92 1024.1
20260502005829 43 174 0.0 0.0 0.00 0.00 0.00 92 1024.0
20260502005812 43 174 0.0 0.0 0.00 0.00 0.00 92 1024.2
20260502005513 43 174 0.0 0.0 0.00 0.00 0.00 92 1024.1
20260502005413 43 174 0.0 0.0 0.00 0.00 0.00 92 1024.1
20260502005307 43 174 0.0 0.0 0.00 0.00 0.00 92 1024.2
20260502005207 43 174 0.0 0.0 0.00 0.00 0.00 92 1024.1
20260502005048 43 174 0.0 0.0 0.00 0.00 0.00 92 1024.2
20260502004317 44 174 0.0 0.0 0.00 0.00 0.00 91 1024.5
20260502004217 44 174 0.0 0.0 0.00 0.00 0.00 91 1024.3
20260502004118 44 174 0.0 0.0 0.00 0.00 0.00 91 1024.4
20260502004006 44 174 0.0 0.0 0.00 0.00 0.00 91 1024.1
20260502003950 44 174 0.0 0.0 0.00 0.00 0.00 91 1024.2
20260502003941 44 174 0.0 0.0 0.00 0.00 0.00 91 1024.3
20260502003924 44 174 0.0 0.0 0.00 0.00 0.00 91 1024.0
20260502003907 44 174 0.0 0.0 0.00 0.00 0.00 91 1023.9
20260502003854 44 174 0.0 0.0 0.00 0.00 0.00 91 1024.3
20260502003844 44 174 0.0 0.0 0.00 0.00 0.00 91 1024.3
20260502003829 44 174 0.0 0.0 0.00 0.00 0.00 91 1024.3
20260502003551 44 174 0.0 0.0 0.00 0.00 0.00 91 1024.2
20260502003032 44 174 0.0 0.0 0.00 0.00 0.00 91 1024.2
20260502002929 43 174 0.0 0.0 0.00 0.00 0.00 91 1024.3
20260502002823 43 174 0.0 0.0 0.00 0.00 0.00 91 1024.0
20260502002718 43 174 0.0 0.0 0.00 0.00 0.00 91 1024.4
20260502002655 43 174 0.0 0.0 0.00 0.00 0.00 91 1024.2
20260502002639 43 174 0.0 0.0 0.00 0.00 0.00 91 1024.3
20260502002403 44 174 0.0 0.0 0.00 0.00 0.00 91 1024.3
20260502002353 44 174 0.0 0.0 0.00 0.00 0.00 91 1024.4
20260502002338 44 174 0.0 0.0 0.00 0.00 0.00 91 1024.2
20260502002112 44 174 0.0 0.0 0.00 0.00 0.00 91 1024.3
20260502002012 44 174 0.0 0.0 0.00 0.00 0.00 91 1024.2
20260502001912 44 174 0.0 0.0 0.00 0.00 0.00 91 1024.4
20260502001806 44 174 0.0 0.0 0.00 0.00 0.00 91 1024.2
20260502001706 44 174 0.0 0.0 0.00 0.00 0.00 90 1024.3
20260502001613 44 174 0.0 0.0 0.00 0.00 0.00 90 1024.3
20260502001606 44 174 0.0 0.0 0.00 0.00 0.00 90 1024.3
20260502001443 44 174 0.0 0.0 0.00 0.00 0.00 90 1024.2
20260502001342 44 174 0.0 0.0 0.00 0.00 0.00 90 1024.1
20260502001252 44 174 0.0 0.0 0.00 0.00 0.00 89 1024.2
20260502001247 44 174 0.0 0.0 0.00 0.00 0.00 90 1024.3
20260502001231 44 174 0.0 0.0 0.00 0.00 0.00 90 1024.3
20260502001215 44 174 0.0 0.0 0.00 0.00 0.00 90 1024.3
20260502001208 44 174 0.0 0.0 0.00 0.00 0.00 89 1024.3
20260502000931 44 174 0.0 0.0 0.00 0.00 0.00 89 1024.2
20260502000914 44 174 0.0 0.0 0.00 0.00 0.00 89 1024.1
20260502000858 44 174 0.0 0.0 0.00 0.00 0.00 89 1024.3
20260502000843 44 174 0.0 0.0 0.00 0.00 0.00 89 1024.3
20260502000835 44 174 0.0 0.0 0.00 0.00 0.00 89 1024.4
20260502000348 44 174 0.0 0.0 0.00 0.00 0.00 89 1024.2
20260502000333 44 174 0.0 0.0 0.00 0.00 0.00 89 1024.2
20260502000317 44 174 0.0 0.0 0.00 0.00 0.00 89 1024.2
20260502000038 44 174 0.0 0.0 0.00 0.00 0.00 89 1024.2
20260501235937 44 174 0.0 0.0 0.00 0.00 0.00 89 1024.1
20260501235836 45 174 0.0 0.0 0.00 0.00 0.00 89 1024.1
20260501235735 45 174 0.0 0.0 0.00 0.00 0.00 89 1024.3
20260501235637 45 174 0.0 0.0 0.00 0.00 0.00 89 1024.3
20260501235555 45 174 0.0 0.0 0.00 0.00 0.00 88 1024.3
20260501235536 45 174 0.0 0.0 0.00 0.00 0.00 89 1024.5
20260501235432 45 174 0.0 0.0 0.00 0.00 0.00 89 1024.4
20260501235331 45 174 0.0 0.0 0.00 0.00 0.00 88 1024.1
20260501235315 45 174 0.0 0.0 0.00 0.00 0.00 88 1024.2
20260501235258 45 174 0.0 0.0 0.00 0.00 0.00 88 1024.1
20260501235242 45 174 0.0 0.0 0.00 0.00 0.00 88 1024.1
20260501234931 45 174 0.0 0.0 0.00 0.00 0.00 88 1024.4
20260501234835 46 174 0.0 0.0 0.00 0.00 0.00 89 1024.2
20260501234831 45 174 0.0 0.0 0.00 0.00 0.00 89 1024.4
20260501234815 46 174 0.0 0.0 0.00 0.00 0.00 89 1024.1
20260501234800 46 174 0.0 0.0 0.00 0.00 0.00 89 1024.2
20260501234521 46 174 0.0 0.0 0.00 0.00 0.00 89 1024.2
20260501234455 46 174 0.0 0.0 0.00 0.00 0.00 89 1024.3
20260501234437 46 174 0.0 0.0 0.00 0.00 0.00 88 1024.4
20260501234117 46 174 0.0 0.0 0.00 0.00 0.00 88 1024.3
20260501234014 46 174 0.0 0.0 0.00 0.00 0.00 88 1024.2
20260501233913 46 174 0.0 0.0 0.00 0.00 0.00 88 1024.2
20260501233813 46 174 0.0 0.0 0.00 0.00 0.00 88 1024.1
20260501233712 45 174 0.0 0.0 0.00 0.00 0.00 89 1024.2
20260501233613 45 174 0.0 0.0 0.00 0.00 0.00 88 1024.2
20260501233512 45 174 0.0 0.0 0.00 0.00 0.00 88 1024.1
20260501233412 45 174 0.0 0.0 0.00 0.00 0.00 88 1024.3
20260501233311 45 174 0.0 0.0 0.00 0.00 0.00 88 1024.2
20260501233211 45 174 0.0 0.0 0.00 0.00 0.00 88 1024.3
20260501233107 46 174 0.0 0.0 0.00 0.00 0.00 88 1024.4
20260501233007 46 174 0.0 0.0 0.00 0.00 0.00 88 1024.2
20260501232907 46 174 0.0 0.0 0.00 0.00 0.00 88 1024.2
20260501232806 46 174 0.0 0.0 0.00 0.00 0.00 88 1024.3
20260501232705 46 174 0.0 0.0 0.00 0.00 0.00 88 1024.4
20260501232603 46 174 0.0 0.0 0.00 0.00 0.00 88 1024.4
20260501232530 46 174 0.0 0.0 0.00 0.00 0.00 88 1024.4
20260501232503 46 174 0.0 0.0 0.00 0.00 0.00 88 1024.4
20260501232400 46 174 0.0 0.0 0.00 0.00 0.00 88 1024.2
20260501232300 46 174 0.0 0.0 0.00 0.00 0.00 88 1024.2
20260501232147 46 174 0.0 0.0 0.00 0.00 0.00 87 1024.4
20260501232046 46 174 0.0 0.0 0.00 0.00 0.00 87 1024.2
20260501232021 46 174 0.0 0.0 0.00 0.00 0.00 87 1024.5
20260501231947 46 174 0.0 0.0 0.00 0.00 0.00 87 1024.5
20260501231846 46 174 0.0 0.0 0.00 0.00 0.00 87 1024.4
20260501231745 46 174 0.0 0.0 0.00 0.00 0.00 87 1024.2
20260501231646 46 174 0.0 0.0 0.00 0.00 0.00 87 1024.2
20260501231520 46 174 0.0 0.0 0.00 0.00 0.00 87 1024.3
20260501231447 46 174 0.0 0.0 0.00 0.00 0.00 87 1024.3
20260501231346 46 174 0.0 0.0 0.00 0.00 0.00 87 1024.5
20260501231246 46 174 0.0 0.0 0.00 0.00 0.00 87 1024.3
20260501231141 46 174 0.0 0.0 0.00 0.00 0.00 87 1024.2
20260501231016 46 174 0.0 0.0 0.00 0.00 0.00 87 1024.4
20260501231007 46 174 0.0 0.0 0.00 0.00 0.00 87 1024.4
20260501230950 46 174 0.0 0.0 0.00 0.00 0.00 87 1024.2
20260501230935 46 174 0.0 0.0 0.00 0.00 0.00 87 1024.4
20260501230918 46 174 0.0 0.0 0.00 0.00 0.00 87 1024.5
20260501230646 46 174 0.0 0.0 0.00 0.00 0.00 87 1024.4
20260501230332 46 174 0.0 0.0 0.00 0.00 0.00 86 1024.4
20260501230230 46 174 0.0 0.0 0.00 0.00 0.00 86 1024.3
20260501230130 46 174 0.0 0.0 0.00 0.00 0.00 86 1024.3
20260501230013 46 174 0.0 0.0 0.00 0.00 0.00 86 1024.4
20260501225925 46 174 0.0 0.0 0.00 0.00 0.00 86 1024.3
20260501225902 46 174 0.0 0.0 0.00 0.00 0.00 86 1024.5
20260501225846 46 174 0.0 0.0 0.00 0.00 0.00 86 1024.2
20260501225510 47 174 0.0 0.0 0.00 0.00 0.00 85 1024.5
20260501225424 47 174 0.0 0.0 0.00 0.00 0.00 85 1024.3
20260501225359 47 174 0.0 0.0 0.00 0.00 0.00 85 1024.4
20260501225343 47 174 0.0 0.0 0.00 0.00 0.00 86 1024.3
20260501225107 46 174 0.0 0.0 0.00 0.00 0.00 85 1024.2
20260501225057 47 174 0.0 0.0 0.00 0.00 0.00 86 1024.4
20260501225046 46 174 0.0 0.0 0.00 0.00 0.00 86 1024.4
20260501225036 46 174 0.0 0.0 0.00 0.00 0.00 86 1024.2
20260501225021 46 174 0.0 0.0 0.00 0.00 0.00 85 1024.3
20260501224756 46 174 0.0 0.0 0.00 0.00 0.00 85 1024.4
20260501224740 46 174 0.0 0.0 0.00 0.00 0.00 85 1024.6
20260501224725 46 174 0.0 0.0 0.00 0.00 0.00 85 1024.2
20260501224458 47 174 0.0 0.0 0.00 0.00 0.00 85 1024.6
20260501224442 47 174 0.0 0.0 0.00 0.00 0.00 84 1024.4
20260501224123 47 174 0.0 0.0 0.00 0.00 0.00 84 1024.3
20260501224007 47 174 0.0 0.0 0.00 0.00 0.00 83 1024.5
20260501223923 47 174 0.0 0.0 0.00 0.00 0.00 83 1024.4
20260501223823 47 174 0.0 0.0 0.00 0.00 0.00 83 1024.5
20260501223723 47 174 0.0 0.0 0.00 0.00 0.00 83 1024.4
20260501223636 47 174 0.0 0.0 0.00 0.00 0.00 83 1024.3
20260501223622 47 174 0.0 0.0 0.00 0.00 0.00 83 1024.6
20260501223609 47 175 0.0 0.0 0.00 0.00 0.00 83 1024.6
20260501223559 47 174 0.0 0.0 0.00 0.00 0.00 83 1024.1
20260501223539 48 175 0.0 0.0 0.00 0.00 0.00 83 1024.5
20260501223524 48 174 0.0 0.0 0.00 0.00 0.00 83 1024.6
20260501223249 48 174 0.0 0.0 0.00 0.00 0.00 83 1024.4
20260501223236 48 174 0.0 0.0 0.00 0.00 0.00 83 1024.4
20260501223225 48 174 0.0 0.0 0.00 0.00 0.00 83 1024.3
20260501222729 48 174 0.0 0.0 0.00 0.00 0.00 83 1024.4
20260501222451 48 174 0.0 0.0 0.00 0.00 0.00 83 1024.6
20260501222407 48 174 0.0 0.0 0.00 0.00 0.00 83 1024.5
20260501222307 48 174 0.0 0.0 0.00 0.00 0.00 83 1024.3
20260501222247 48 174 0.0 0.0 0.00 0.00 0.00 83 1024.5
20260501222239 48 174 0.0 0.0 0.00 0.00 0.00 83 1024.5
20260501222223 48 174 0.0 0.0 0.00 0.00 0.00 83 1024.4
20260501222207 48 174 0.0 0.0 0.00 0.00 0.00 83 1024.5
20260501221909 48 174 0.0 0.0 0.00 0.00 0.00 82 1024.5
20260501221808 48 174 0.0 0.0 0.00 0.00 0.00 82 1024.3
20260501221742 48 174 0.0 0.0 0.00 0.00 0.00 82 1024.4
20260501221725 48 174 0.0 0.0 0.00 0.00 0.00 82 1024.3
20260501221658 48 174 0.0 0.0 0.00 0.00 0.00 82 1024.3
20260501221647 48 174 0.0 0.0 0.00 0.00 0.00 82 1024.5
20260501221059 48 174 0.0 0.0 0.00 0.00 0.00 82 1024.4
20260501221025 48 174 0.0 0.0 0.00 0.00 0.00 82 1024.5
20260501221014 48 174 0.0 0.0 0.00 0.00 0.00 82 1024.4
20260501220652 48 174 0.0 0.0 0.00 0.00 0.00 83 1024.6
20260501220545 48 174 0.0 0.0 0.00 0.00 0.00 83 1024.5
20260501220443 48 174 0.0 0.0 0.00 0.00 0.00 83 1024.6
20260501220342 47 174 0.0 0.0 0.00 0.00 0.00 83 1024.7
20260501220244 47 174 0.0 0.0 0.00 0.00 0.00 83 1024.6
20260501220229 47 174 0.0 0.0 0.00 0.00 0.00 82 1024.5
20260501220220 47 174 0.0 0.0 0.00 0.00 0.00 83 1024.4
20260501220204 47 174 0.0 0.0 0.00 0.00 0.00 83 1024.3
20260501220147 47 174 0.0 0.0 0.00 0.00 0.00 82 1024.5
20260501215736 47 175 0.0 0.0 0.00 0.00 0.00 82 1024.5
20260501215628 47 175 0.0 0.0 0.00 0.00 0.00 82 1024.3
20260501215614 48 175 0.0 0.0 0.00 0.00 0.00 82 1024.4
20260501215603 47 175 0.0 0.0 0.00 0.00 0.00 82 1024.5
20260501215546 47 175 0.0 0.0 0.00 0.00 0.00 82 1024.7
20260501215540 48 175 0.0 0.0 0.00 0.00 0.00 82 1024.7
20260501215305 48 174 0.0 0.0 0.00 0.00 0.00 82 1024.6
20260501215248 48 174 0.0 0.0 0.00 0.00 0.00 82 1024.5
20260501215233 48 175 0.0 0.0 0.00 0.00 0.00 82 1024.4
20260501215007 48 175 0.0 0.0 0.00 0.00 0.00 82 1024.4
20260501214648 48 175 0.0 0.0 0.00 0.00 0.00 81 1024.4
20260501214548 48 175 0.0 0.0 0.00 0.00 0.00 81 1024.5
20260501214448 48 175 0.0 0.0 0.00 0.00 0.00 81 1024.3
20260501214418 49 175 0.0 0.0 0.00 0.00 0.00 81 1024.5
20260501214343 49 174 0.0 0.0 0.00 0.00 0.00 81 1024.4
20260501214241 49 175 0.0 0.0 0.00 0.00 0.00 81 1024.3
20260501214142 49 174 0.0 0.0 0.00 0.00 0.00 81 1024.4
20260501214132 50 175 0.0 0.0 0.00 0.00 0.00 78 1024.4
20260501214122 49 174 0.0 0.0 0.00 0.00 0.00 81 1024.7
20260501214107 49 175 0.0 0.0 0.00 0.00 0.00 81 1024.5
20260501214053 49 174 0.0 0.0 0.00 0.00 0.00 80 1024.5
20260501214044 49 174 0.0 0.0 0.00 0.00 0.00 80 1024.4
20260501213808 49 174 0.0 0.0 0.00 0.00 0.00 80 1024.3
20260501213543 49 174 0.0 0.0 0.00 0.00 0.00 80 1024.3
20260501213513 49 174 0.0 0.0 0.00 0.00 0.00 80 1024.4
20260501213504 49 174 0.0 0.0 0.00 0.00 0.00 80 1024.4
20260501213226 49 174 0.0 0.0 0.00 0.00 0.00 79 1024.3
20260501213211 49 174 0.0 0.0 0.00 0.00 0.00 79 1024.3
20260501213155 49 174 0.0 0.0 0.00 0.00 0.00 79 1024.3
20260501213141 49 174 0.0 0.0 0.00 0.00 0.00 79 1024.3
20260501213131 49 174 0.0 0.0 0.00 0.00 0.00 78 1024.5
20260501213116 49 174 0.0 0.0 0.00 0.00 0.00 79 1024.2
20260501212840 50 174 0.0 0.0 0.00 0.00 0.00 79 1024.3
20260501212329 50 175 0.0 0.0 0.00 0.00 0.00 78 1024.3
20260501212229 50 175 0.0 0.0 0.00 0.00 0.00 77 1024.2
20260501212125 50 175 0.0 0.0 0.00 0.00 0.00 77 1024.4
20260501212025 50 175 0.0 0.0 0.00 0.00 0.00 77 1024.4
20260501211925 50 175 0.0 0.0 0.00 0.00 0.00 77 1024.5
20260501211856 50 175 0.0 0.0 0.00 0.00 0.00 77 1024.5
20260501211824 50 175 0.0 0.0 0.00 0.00 0.00 77 1024.3
20260501211800 50 175 0.0 0.0 0.00 0.00 0.00 77 1024.5
20260501211746 50 175 0.0 0.0 0.00 0.00 0.00 77 1024.3
20260501211424 50 175 0.0 0.0 0.00 0.00 0.00 77 1024.4
20260501211357 50 175 0.0 0.0 0.00 0.00 0.00 77 1024.4
20260501211324 50 175 0.0 0.0 0.00 0.00 0.00 77 1024.4
20260501211235 50 175 0.0 0.0 0.00 0.00 0.00 75 1024.4
20260501211230 50 175 0.0 0.0 0.00 0.00 0.00 77 1024.5
20260501211214 50 175 0.0 0.0 0.00 0.00 0.00 77 1024.4
20260501211158 50 175 0.0 0.0 0.00 0.00 0.00 77 1024.3
20260501211142 50 175 0.0 0.0 0.00 0.00 0.00 77 1024.2
20260501211130 50 175 0.0 0.0 0.00 0.00 0.00 77 1024.2
20260501211120 50 175 0.0 0.0 0.00 0.00 0.00 77 1024.3
20260501210624 50 175 0.0 0.0 0.00 0.00 0.00 76 1024.4
20260501210556 50 175 0.0 0.0 0.00 0.00 0.00 76 1024.4
20260501210323 50 175 0.0 0.0 0.00 0.00 0.00 76 1024.4
20260501210307 50 175 0.0 0.0 0.00 0.00 0.00 76 1024.5
20260501210252 50 175 0.0 0.0 0.00 0.00 0.00 76 1024.2
20260501210235 50 175 0.0 0.0 0.00 0.00 0.00 75 1024.4
20260501210008 50 175 0.0 0.0 0.00 0.00 0.00 75 1024.4
20260501205730 51 175 0.0 0.0 0.00 0.00 0.00 75 1024.4
20260501205447 51 175 0.0 0.0 0.00 0.00 0.00 74 1024.3
20260501205430 51 175 0.0 0.0 0.00 0.00 0.00 74 1024.2
20260501205414 51 175 0.0 0.0 0.00 0.00 0.00 74 1024.2
20260501205400 51 175 0.0 0.0 0.00 0.00 0.00 74 1024.4
20260501205117 51 175 0.0 0.0 0.00 0.00 0.00 74 1024.3
20260501204619 52 175 0.0 0.0 0.00 0.00 0.00 73 1024.3
20260501204603 52 175 0.0 0.0 0.00 0.00 0.00 72 1024.4
20260501204337 52 175 0.0 0.0 0.00 0.00 0.00 72 1024.2
20260501204238 52 175 0.0 0.0 0.00 0.00 0.00 72 1024.3
20260501204137 52 175 0.0 0.0 0.00 0.00 0.00 72 1024.3
20260501204038 52 175 0.0 0.0 0.00 0.00 0.00 71 1024.4
20260501203937 52 175 0.0 0.0 0.00 0.00 0.00 71 1024.3
20260501203837 53 175 0.0 0.0 0.00 0.00 0.00 71 1024.1
20260501203737 53 175 0.0 0.0 0.00 0.00 0.00 71 1024.3
20260501203637 53 175 0.0 0.0 0.00 0.00 0.00 71 1024.3
20260501203538 53 175 0.0 0.0 0.00 0.00 0.00 70 1024.3
20260501203528 54 175 0.0 0.0 0.00 0.00 0.00 68 1024.4
20260501203524 54 175 0.0 0.0 0.00 0.00 0.00 67 1024.3
20260501203515 53 175 0.0 0.0 0.00 0.00 0.00 70 1024.3
20260501203446 53 175 0.0 0.0 0.00 0.00 0.00 70 1024.4
20260501203434 53 175 0.0 0.0 0.00 0.00 0.00 70 1024.4
20260501203418 53 175 0.0 0.0 0.00 0.00 0.00 70 1024.2
20260501203403 53 175 0.0 0.0 0.00 0.00 0.00 70 1024.3
20260501202914 53 175 0.0 0.0 0.00 0.00 0.00 69 1024.4
20260501202859 53 175 0.0 0.0 0.00 0.00 0.00 69 1024.3
20260501202623 54 175 0.0 0.0 0.00 0.00 0.00 69 1024.5
20260501202608 54 175 0.0 0.0 0.00 0.00 0.00 68 1024.3
20260501202545 54 175 0.0 0.0 0.00 0.00 0.00 68 1024.2
20260501202527 54 175 0.0 0.0 0.00 0.00 0.00 68 1024.4
20260501202512 54 175 0.0 0.0 0.00 0.00 0.00 68 1024.3
20260501202455 54 175 0.0 0.0 0.00 0.00 0.00 68 1024.2
20260501202438 54 175 0.0 0.0 0.00 0.00 0.00 68 1024.3
20260501202420 54 175 0.0 0.0 0.00 0.00 0.00 68 1024.4
20260501202155 54 175 0.0 0.0 0.00 0.00 0.00 68 1024.5
20260501201700 54 175 0.0 0.0 0.00 0.00 0.00 68 1024.2
20260501201643 54 175 0.0 0.0 0.00 0.00 0.00 67 1024.3
20260501201141 54 175 0.0 0.0 0.00 0.00 0.00 68 1024.3
20260501201125 54 174 0.0 0.0 0.00 0.00 0.00 68 1024.2
20260501200837 54 175 0.0 0.0 0.00 0.00 0.00 68 1024.3
20260501200822 54 175 0.0 0.0 0.00 0.00 0.00 68 1024.3
20260501200502 54 175 0.0 0.0 0.00 0.00 0.00 68 1024.3
20260501200437 55 175 0.0 0.0 0.00 0.00 0.00 67 1024.2
20260501200429 54 175 0.0 0.0 0.00 0.00 0.00 67 1024.3
20260501200407 54 174 0.0 0.0 0.00 0.00 0.00 68 1024.4
20260501200349 55 174 0.0 0.0 0.00 0.00 0.00 68 1024.5
20260501200113 55 175 0.0 0.0 0.00 0.00 0.00 67 1024.3
20260501200058 55 175 0.0 0.0 0.00 0.00 0.00 67 1024.3
20260501200040 55 175 0.0 0.0 0.00 0.00 0.00 67 1024.2
20260501195816 55 175 0.0 0.0 0.00 0.00 0.00 67 1024.2
20260501195459 55 175 0.0 0.0 0.00 0.00 0.00 68 1024.2
20260501195353 55 175 0.0 0.0 0.00 0.00 0.00 68 1024.3
20260501195249 55 175 0.0 0.0 0.00 0.00 0.00 68 1024.3
20260501195149 55 175 0.0 0.0 0.00 0.00 0.00 68 1024.2
20260501195049 55 175 0.0 0.0 0.00 0.00 0.00 68 1024.2
20260501194949 55 175 0.0 0.0 0.00 0.00 0.00 68 1024.3
20260501194850 55 175 0.0 0.0 0.00 0.00 0.00 68 1024.3
20260501194751 55 175 0.0 0.0 0.00 0.00 0.00 68 1024.3
20260501194651 55 175 0.0 0.0 0.00 0.00 0.00 67 1024.3
20260501194625 55 175 0.0 0.0 0.00 0.00 0.00 67 1024.3
20260501194609 55 175 0.0 0.0 0.00 0.00 0.00 67 1024.3
20260501194249 55 175 0.0 0.0 0.00 0.00 0.00 67 1024.1
20260501194150 55 175 0.0 0.0 0.00 0.00 0.00 66 1024.1
20260501194050 56 175 0.0 0.0 0.00 0.00 0.00 66 1024.2
20260501193950 56 175 0.0 0.0 0.00 0.00 0.00 65 1024.3
20260501193847 56 175 0.0 0.0 0.00 0.00 0.00 64 1024.2
20260501193749 56 175 0.0 0.0 0.00 0.00 0.00 64 1024.0
20260501193647 56 175 0.0 0.0 0.00 0.00 0.00 64 1024.2
20260501193547 57 175 0.0 0.0 0.00 0.00 0.00 64 1024.0
20260501193448 57 175 0.0 0.0 0.00 0.00 0.00 63 1024.1
20260501193348 57 175 0.0 0.0 0.00 0.00 0.00 63 1024.2
20260501193248 57 175 0.0 0.0 0.00 0.00 0.00 63 1024.1
20260501193147 57 175 0.0 0.0 0.00 0.00 0.00 62 1024.1
20260501193047 57 175 0.0 0.0 0.00 0.00 0.00 63 1024.1
20260501192948 58 175 0.0 0.0 0.00 0.00 0.00 62 1024.0
20260501192927 58 175 0.0 0.0 0.00 0.00 0.00 62 1024.2
20260501192904 58 175 0.0 0.0 0.00 0.00 0.00 62 1024.1
20260501192543 58 175 0.0 0.0 0.00 0.00 0.00 60 1024.2
20260501192441 58 175 0.0 0.0 0.00 0.00 0.00 59 1024.0
20260501192341 59 175 0.0 0.0 0.00 0.00 0.00 60 1024.0
20260501192241 59 175 0.0 0.0 0.00 0.00 0.00 59 1024.3
20260501192142 59 175 0.0 0.0 0.00 0.00 0.00 59 1024.0
20260501192042 59 175 0.0 0.0 0.00 0.00 0.00 59 1024.1
20260501192022 60 175 0.0 0.0 0.00 0.00 0.00 58 1024.1
20260501192005 60 175 0.0 0.0 0.00 0.00 0.00 58 1024.2
20260501191738 60 175 0.0 0.0 0.00 0.00 0.00 57 1024.1